Weather in Juneau

United States     58°21′38″N   134°30′47″W
temp.,
°C
wind,
m/s
gust,
m/s
humid.,
%
clouds,
%
prec.,
mm/h
press.,
hPa
HPBL,
m
16 september, thu
thu1601:00+5e2298100 0.3 101759
04:00+6ese2496100 1.4 1015187
07:00+6ese3698100 4.1 1013770
10:00+5ese3697100 11.1 1012899
13:00+6e2497100 3.4 1010498
16:00+5e2397100 4.3 1008261
19:00+5e2398100 0.8 1005170
22:00+4e2395100 1.1 100286
17 september, fri
fri1701:00+4e1191100 0.1 100030
04:00+4e1188100 0.1 99724
07:00+5e1188100 0.0 99628
10:00+6ene1284100 0.1 996162
13:00+9ese1273100 0.0 996665
16:00+9ene1167100 0.1 995660
19:00+6ne118483 0.0 99513
22:00+4ne218378 0.0 99517
18 september, sat
sat1801:00+3ene2285100 0.0 99522
04:00+3ne228588 0.0 99519
07:00+3ne228353 0.0 99520
10:00+9ene126668 0.0 996419
13:00+11ene1159100 0.0 998962
16:00+11nnw1160100 0.0 999868
19:00+6ne118188 0.1 100110
22:00+5e118378 0.1 100313
19 september, sun
sun1901:00+5e1181100 0.0 100516
04:00+6e1183100 0.0 100622
07:00+6ene1196100 0.6 100832
10:00+7e1196100 1.4 100993
13:00+8ese119093 0.3 1011350
16:00+9ese118895 0.8 1012304
19:00+6e219791 0.2 101333
22:00+6e229491 0.2 101546
20 september, mon
mon2001:00+6e2295100 0.0 101569
04:00+6e349689 0.1 1014130
07:00+6e3496100 0.1 1012129
10:00+6e3698100 4.2 1011422
13:00+6ese3498100 4.6 1008245
16:00+6e3498100 12.6 1005277
19:00+6e2398100 1.8 1005180
22:00+5e2399100 6.8 1004142